User: anonymous   Login
Location: Unspecified
(0.0000°N, 0.0000°E)
Time: 00:48:13
(UTC+00:00)
Language:

MUOS - Orbit

View from above orbital plane
View from above orbital plane
View from above satellite
View from above satellite

Ground track
Ground track

The orbit data is extracted from the following two-line orbital elements,

1 38093U 12009A   17015.11017088 0.00000000  00000-0  00000-0 0    08
2 38093   3.3746 337.3965 0059607 183.3988 176.5738  1.00270000    08
Epoch (UTC): 15 January 2017 02:38:38
Eccentricity: 0.0059607
inclination: 3.3746°
perigee height: 35535 km
apogee height: 36038 km
right ascension of ascending node: 337.3965°
argument of perigee: 183.3988°
revolutions per day: 1.00270000
mean anomaly at epoch: 176.5738°
orbit number at epoch: 0

The dashed part of the orbit path shows where the satellite is in the earth's shadow,  

DLR